STARLINK-35197, 66193

Orbit data source: Space-Track

STARLINK-35197, 66193 is a payload satellite owned by SpaceX/Seattle (US) in LEO that was launched on Sun, 26 Oct 2025 UTC via an FALCON 9 launch vehicle from the Air Force Eastern Test Range (AFETR). Payload-class satellites include a variety of spacecraft equipped with specific instruments for various scientific and technological missions. These include communications satellites like Starlink; space stations such as the ISS; scientific satellites like the Hubble; Earth observation satellites from companies like Planet Labs, Umbra, and HawkEye 360; GPS; miniature CubeSats for education and research; and military/defense satellites.

Loading next visibility...
Identifier
66193, 2025-243S
Orbit
LEO
Country
Flag of USUS
Related business
Manufacturer
SpaceX/Seattle
Mission
Operational Commercial Communications
Bus & Motor
STARLINK V2MO, Unknown motor
Mass
575 kg wet, ~530 kg dry
Launch date (UTC)
2025-10-26 (8 months ago)
Launch vehicle
FALCON 9
Launch site
Air Force Eastern Test Range (AFETR)
Object type
Payload
Rocket body
Debris
Shape & HBR
Box + 2 Pan, 17.7 m
Radar Cross Section
36.964 m², Large (>1 m²)

Expand to show TLE details & history
Last TLE update: 2 days ago

TLE from 2 days ago
0 STARLINK-35197
1 66193U 25243S   26170.17671018  .00016468  00000-0  56682-3 0  9993
2 66193  53.1594 133.7307 0001449 118.1085 242.0062 15.30203958 36191
Epoch: 2026-06-19T04:14Z
TLE epoch observation values (Epoch: 2026-06-19T04:14:27.759Z)
Latitude
-0.00005°
Longitude
162.70556°
Altitude
476.569 km
Speed
7.628 km/s
True Right ascension
08h 54m 55s
True Declination
0° 00' 00"
Sunlit
Object was in daylight at epoch
Visualization orbit readout
Latitude
Unknown
Longitude
Unknown
Altitude
Unknown
Speed
Unknown
Apparent Right ascension
Unknown
Apparent Declination
Unknown
Sunlit
N/A
Visualization observer readout
Local Sidereal Time
08:42:35
Azimuth
Unknown
Elevation
Unknown
Doppler factor
Unknown
Orbital elements
Apogee altitude
476.453 km
Perigee altitude
474.467 km
Semi-major axis
6,853.597 km
Eccentricity
0.00014
Inclination
53.1594°
RAAN
133.7307°
Arg. of periapsis
118.1085°
True anomaly
241.99154°
Mean anomaly
242.0062°
Eccentric anomaly
241.99887°
Mean motion
3.8253 °/min
Orbital period
94.11 mins
BSTAR
0.00056682
Loading maneuver chart data...
Computing Atmospheric mass density...
Loading historical data...
Loading historical data...
Loading historical data...
Loading historical data...
Loading historical data...
Loading historical data...
Loading historical data...

Documentation

Showing up to 5 results
|